Regional Weather Roundup
Issued by NWS

Home | Current Version | Previous Version | Text Only | Print | Product List | Glossary On
Versions: 1 2 3 4 5 6 7 8 9 10 11 12 13 14 15 16 17 18 19 20 21 22 23 24 25 26 27 28 29 30 31 32 33 34 35 36 37 38 39 40 41 42 43 44 45 46 47 48 49 50
000
ASUS46 KLOX 231912
RWRCA

SOUTHERN CALIFORNIA WEATHER ROUNDUP
NATIONAL WEATHER SERVICE OXNARD CALIFORNIA
1200 PM PDT WED JUL 23 2014

NOTE: "FAIR" INDICATES FEW OR NO CLOUDS BELOW 12,000 FEET WITH NO
SIGNIFICANT WEATHER AND/OR OBSTRUCTIONS TO VISIBILITY.

  -  STATIONS PRECEEDED BY AN ASTERISK (*) ARE NOT NWS OR FAA
     STATIONS AND ARE NOT SUBJECT TO NWS AND FAA QUALITY CONTROL.

CAZ041-042-087-232000-
LA AND ORANGE COUNTY COASTAL AREAS


CITY           SKY/WX    TMP DP  RH WIND       PRES   REMARKS
L.A. DOWNTOWN  SUNNY     86  61  42 SW6       29.97F
L.A. AIRPORT   MOSUNNY   78  58  49 W12       30.00S
LONG BEACH     SUNNY     81  62  52 SW10      29.98F

CITY           SKY/WX    TMP DP  RH WIND       PRES   REMARKS
AVALON           N/A     75 N/A N/A MISG        N/A
FULLERTON      SUNNY     89  57  33 MISG      29.96F
*GETTY CENTER    N/A     84  52  32 S8          N/A
HAWTHORNE      SUNNY     79  60  52 W10       29.99F
*LEO CARRILLO    N/A     75  60  60 W14         N/A
*LOS ALAMITOS  MOSUNNY   83  64  52 S8        29.98F
*REDONDO BEACH   N/A     76  63  65 W5        29.99F
SANTA ANA      MOSUNNY   82  59  45 SW10      29.98F
STA MONICA APT SUNNY     80  58  46 SW9       30.00F
TORRANCE       SUNNY     81  63  54 W17       30.00F
*UCLA            N/A     79  54  41 SW6       29.96F

$$

CAZ547-548-048-232000-
LA COUNTY VALLEYS AND INLAND EMPIRE


CITY           SKY/WX    TMP DP  RH WIND       PRES   REMARKS
BURBANK        SUNNY     89  50  26 SE3       29.99F
VAN NUYS       SUNNY     93  47  20 CALM      29.98F

CITY           SKY/WX    TMP DP  RH WIND       PRES   REMARKS
CORONA AIRPORT CLEAR     91  55  29 MISG      29.97F
CHINO          MOSUNNY   91  53  27 W5        29.98F
MARCH AFB      SUNNY     94  47  19 NW8       30.02F HX  90
*NORTHRIDGE      N/A     91  41  17 SW3         N/A
ONTARIO        MOSUNNY   90  48  23 S5        29.99F
*PASADENA        N/A     91  57  31 E3          N/A  HX  90
POMONA         SUNNY     88  54  31 SW9       30.02F
RIVERSIDE      SUNNY     92  49  22 VRB5      29.98F
SAN BERNARDINO SUNNY     91  41  17 CALM      30.00F
*SAN GABRIEL     N/A     88  51  27 CALM      29.93F
*SAN RAFAEL HI   N/A     94  59  30 E5          N/A  HX  93
*SAUGUS          N/A     97  48  18 W6          N/A  HX  93
*WHITEMAN AP   SUNNY     90  52  27 CALM      30.03F
*WHITTIER HILL   N/A     90  60  36 SW7         N/A
*WOODLAND HILL   N/A     93  37  14 SW3         N/A

$$

CAZ054-055-232000-
LA AND SAN BERNARDINO COUNTY MOUNTAINS


CITY           SKY/WX    TMP DP  RH WIND       PRES   REMARKS
*BIG BEAR AIRP CLEAR     82  19   9 W12       30.37S
*CHILAO          N/A     87  34  15 S8          N/A
MT WILSON NWS    N/A     86  39  19 MISG        N/A
SANDBERG       SUNNY     83  39  21 N9        30.23F
*WARM SPRINGS    N/A     89  44  20 SW3         N/A

$$

CAZ028-029-059-060-099-232000-
ANTELOPE VALLEY AND SURROUNDING AREAS


CITY           SKY/WX    TMP DP  RH WIND       PRES   REMARKS
LANCASTER      SUNNY     95  34  11 NW6       30.05F HX  90
PALMDALE       SUNNY     97  19   6 W15G21    30.07F HX  90
*POPPY PARK      N/A     97  42  14 SE3         N/A  HX  93

CITY           SKY/WX    TMP DP  RH WIND       PRES   REMARKS
29 PALMS       MOSUNNY  102  25   6 N10       30.06F HX  95
BARSTOW/DAGGET SUNNY     98  40  13 NW14G21   30.01F HX  93
BISHOP         SUNNY     92  22   8 S10G21    30.10F
CHINA LAKE     SUNNY    N/A N/A N/A SE8       30.00F
EDWARDS AFB    MOSUNNY   93  35  12 W8        30.04F
MOJAVE         FAIR      93  36  13 W12G20    30.08F
NEEDLES        SUNNY    110  29   6 VRB6      29.88F HX 102
VICTORVILLE    MOSUNNY   93  36  13 W3        30.08F

$$

CAZ039-040-232000-
VENTURA AND SANTA BARBARA COUNTY COAST


CITY           SKY/WX    TMP DP  RH WIND       PRES   REMARKS
CAMARILLO      SUNNY     82  57  42 SW8       29.99F
NWS OXNARD       N/A     79  62  55 W10       29.99F
OXNARD AIRPORT SUNNY     75  63  66 W13       30.00F
*POINT MUGU    MOSUNNY   73  62  68 W15       30.01F
SBA APT/GOLETA SUNNY     79  57  46 S7        29.99F
*SANTA BARBARA   N/A     81  61  50 S6        30.07S
*VENTURA         N/A     80  63  55 SW5       30.02F

$$

CAZ044-045-232000-
VENTURA COUNTY VALLEYS


CITY           SKY/WX    TMP DP  RH WIND       PRES   REMARKS
*SIMI VALLEY     N/A     87  57  35 W6        29.93F
*OJAI            N/A     94  61  32 NW3       29.90F HX  94
*FILLMORE        N/A     92  64  38 CALM      29.87F HX  93

$$

CAZ053-232000-
VENTURA COUNTY MOUNTAINS


CITY           SKY/WX    TMP DP  RH WIND       PRES   REMARKS
*LOCKWOOD VLY    N/A    N/A N/A N/A NW2         N/A
*ROSE VALLEY     N/A     90  52  27 MISG        N/A

$$

CAZ034-035-036-232000-
CENTRAL COAST AND SANTA YNEZ VALLEY


CITY           SKY/WX    TMP DP  RH WIND       PRES   REMARKS
SAN LUIS OBISP SUNNY     80  56  43 NW21      30.05F
SANTA MARIA    SUNNY     80  56  43 NW17      30.07F

CITY           SKY/WX    TMP DP  RH WIND       PRES   REMARKS
*CAL POLY SLO    N/A     79  59  50 W10         N/A
*CAMBRIA         N/A     69  61  76 E13       29.99S
*LOMPOC          N/A     79  55  44 NW16G22   30.08S
*PISMO BEACH     N/A     74  63  69 W6        30.05F

$$

CAZ037-038-051-232000-
SAN LUIS OBISPO COUNTY INTERIOR AND CUYAMA VALLEY


CITY           SKY/WX    TMP DP  RH WIND       PRES   REMARKS
*CUYAMA          N/A     78  55  45 CALM      30.01F
PASO ROBLES    SUNNY     80  53  39 CALM      30.10F

$$

CAZ032-033-061-232000-
SOUTHERN DESERTS


CITY           SKY/WX    TMP DP  RH WIND       PRES   REMARKS
BLYTHE         SUNNY    108  33   7 S3        29.85F HX 101
IMPERIAL       SUNNY    109  35   8 N7        29.81F HX 102
PALM SPRINGS   SUNNY    109  15   3 CALM      29.86F HX 100
THERMAL        SUNNY    111  31   6 CALM      29.79F HX 103

$$

ELSEWHERE ACROSS THE WESTERN UNITED STATES AND MEXICO


CITY           SKY/WX    TMP DP  RH WIND       PRES   REMARKS
DENVER, CO     MOSUNNY   87  59  38 W10       30.33F
GRAND CANYON,  MOSUNNY   87  37  17 MISG      30.38S
HONOLULU, HI   MOSUNNY   82  64  54 E10G22    30.05R
KAHULUI, MAUI  MOSUNNY   82  64  54 NE20G25   30.05S
LAKE TAHOE, CA SUNNY     74  32  21 SW9G22    30.30R
LAS VEGAS, NV  MOSUNNY  105  28   7 S14G23    29.93F HX  98
MAMMOTH LAKES, FAIR      82  12   7 W5        30.32F
MEXICO CITY, M PTSUNNY   72  46  40 NE9       30.36F
PHOENIX, AZ    PTSUNNY  108  56  18 SE5G17    29.90S HX 107
PORTLAND, OR   LGT RAIN  60  58  92 S10       30.08R FOG
RENO, NV       MOSUNNY   86  29  12 W8        30.15F
SALT LAKE CITY MOSUNNY   99  32   9 SE22G28   30.08F HX  93
SAN DIEGO, CA  MOSUNNY   80  58  46 W8        30.00F
SAN FRANCISCO, PTSUNNY   74  61  63 NW12      30.14S
SAN JOSE, CA   MOSUNNY   74  57  55 NW8       30.13F
SEATTLE, WA    HVY RAIN  61  59  93 SW15      30.03R FOG
TIJUANA, MEX   SUNNY     81  59  47 W12       30.01F

$$

STATION/POSITION TIME  TEMP    WIND        PRES    VSBY  WAVE
                       AIR SEA DIR/SP/G                  HT/PER
                 (UTC) (F)     (DEG/KT/KT) (MB)    (MI)  (FT/S)
POINT ARGUELLO B NOT AVBL
WEST SANTA BARBA 1900   64 62  310/ 19/ 23 1016.8F         5/ 5
POINT CONCEPTION NOT AVBL
EAST SANTA BARBA 1800   67 67  260/  6/  6 1016.4
SANTA MONICA BAY 1900   69 71  320/  4/  4 1015.8F         3/ 5



USA.gov is the U.S. government's official web portal to all federal, state and local government web resources and services.